Overview Statistics Trail Chart Weather Telemetry Raw packets
 

This is the latest recevied weather packets stored in our database for station/object K1RFS. If no packets are shown the sender has not sent any weather packets the latest 10 day(s).

<< 90 91 92 93 94 95 96 >>
Time Temp. Humidity Pressure Rain* Wind** Luminosity Snow
1788026434 15.56° C 94% 1006.9 hPa 0 mm - 90 W/m² -
1788026128 15.56° C 94% 1007 hPa 0 mm - 106 W/m² -
1788025826 16.11° C 95% 1007 hPa 0 mm - 124 W/m² -
1788025526 15.56° C 95% 1007 hPa 0 mm - 197 W/m² -
1788025221 15.56° C 95% 1007.3 hPa 0 mm - 136 W/m² -
1788024916 15.56° C 95% 1007.1 hPa 0 mm - 148 W/m² -
1788024612 15.56° C 95% 1007 hPa 1.27 mm - 143 W/m² -
1788024307 15.56° C 94% 1007.1 hPa 29.97 mm - 196 W/m² -
1788024002 15° C 93% 1006.9 hPa 60.71 mm - 126 W/m² -
1788023697 15° C 91% 1006.9 hPa 49.78 mm - 42 W/m² -
1788023393 15.56° C 88% 1007.7 hPa 10.16 mm - 7 W/m² -
1788023093 16.67° C 86% 1006.2 hPa 0 mm - 5 W/m² -
1788022791 17.78° C 84% 1005.2 hPa 0 mm - 12 W/m² -
1788022490 17.78° C 84% 1005.6 hPa 0 mm - 18 W/m² -
1788022190 17.78° C 84% 1005.8 hPa 0 mm - 58 W/m² -
1788021889 17.78° C 85% 1005.6 hPa 0 mm - 238 W/m² -
1788021589 17.78° C 87% 1006.1 hPa 0 mm - 124 W/m² -
1788021287 17.78° C 88% 1006.3 hPa 0 mm - 97 W/m² -
1788020982 17.78° C 88% 1006.5 hPa 0 mm - 42 W/m² -
1788020677 17.78° C 89% 1006.4 hPa 0 mm - 33 W/m² -
1788020372 17.78° C 89% 1006.2 hPa 0 mm - 26 W/m² -
1788020069 17.78° C 90% 1006.3 hPa 0 mm - 55 W/m² -
1788019769 17.78° C 90% 1006.5 hPa 0 mm - 33 W/m² -
1788019469 17.78° C 90% 1006.4 hPa 0 mm - 43 W/m² -
1788019166 17.78° C 91% 1006.2 hPa 0 mm - 79 W/m² -

* Rain latest hour (hover to see other rain measurements)
** Current wind speed in m/s (hover to see current wind gust speed)